GFSNGP_700_temp_162.txt.gz
Temp
-2 -3 -2 -2 -2 -2 -3 -2 -2 -1 -1 -1 -1 -0 -1 -0 1 1 2 2 3 3 2 1 -0 -1 -2 -1 -1 -1 -2 -2 -3 -3 -3 -4 -4 -4 -5 -5 -6 -6 -6 -6
-4 -4 -3 -3 -1 -3 -2 -2 -3 -3 -2 -0 -2 -0 0 -1 0 1 1 2 1 1 1 0 0 -0 -1 -1 -2 -2 -2 -3 -3 -3 -3 -4 -4 -5 -5 -6 -6 -6 -6 -6
-4 -3 -2 -3 -2 -2 -0 -2 -2 -2 1 -1 -1 -1 -0 0 -1 -0 0 0 -1 -1 -0 -1 -0 -1 -2 -2 -2 -2 -3 -3 -3 -3 -4 -4 -5 -5 -6 -6 -6 -6 -6 -7
-5 -4 -3 -3 -3 -2 -2 -2 -1 -1 0 0 1 0 -1 -0 -0 -0 -0 -0 -0 -1 -1 -1 -2 -1 -2 -2 -2 -2 -2 -3 -3 -4 -4 -5 -5 -6 -6 -6 -7 -7 -7 -7
-6 -4 -4 -3 -3 -2 -2 -2 -1 -1 -0 -0 -0 -0 -0 -1 -1 0 -0 -0 -1 -1 -1 -1 -1 -1 -2 -2 -2 -2 -2 -3 -4 -4 -5 -5 -5 -6 -6 -7 -7 -7 -7 -8
-6 -5 -4 -2 -3 -3 -3 -2 -1 -1 -0 -0 -1 -0 1 -0 -0 -0 -0 -1 -1 -1 -1 -1 -1 -2 -2 -2 -2 -2 -3 -4 -4 -5 -5 -6 -6 -6 -7 -8 -8 -8 -8 -8
-7 -6 -4 -3 -3 -4 -3 -2 -1 -1 -1 -1 -0 0 -1 -0 -1 -1 -0 -0 -1 -1 -1 -1 -2 -2 -2 -2 -3 -3 -3 -4 -5 -5 -6 -6 -7 -7 -8 -8 -8 -8 -8 -9
-7 -6 -5 -3 -3 -4 -2 -2 -3 -2 -2 -2 -1 -1 -1 -1 -1 -1 -1 -1 -1 -1 -1 -2 -2 -2 -3 -3 -3 -3 -4 -5 -5 -6 -6 -6 -7 -8 -8 -8 -8 -8 -8 -9
-5 -4 -4 -4 -4 -4 -4 -3 -3 -3 -2 -2 -2 -2 -2 -1 -1 -1 -2 -2 -2 -2 -2 -2 -3 -3 -3 -3 -3 -4 -5 -6 -6 -6 -6 -7 -7 -8 -8 -8 -8 -9 -9 -9
-5 -5 -4 -4 -5 -4 -4 -4 -3 -3 -3 -3 -3 -2 -2 -2 -1 -1 -2 -2 -3 -3 -3 -3 -3 -3 -3 -4 -4 -5 -6 -6 -6 -7 -7 -7 -8 -8 -8 -9 -9 -9 -9 -9
-4 -5 -4 -5 -5 -4 -4 -4 -4 -4 -3 -3 -3 -3 -2 -2 -2 -2 -3 -3 -3 -3 -4 -4 -4 -4 -4 -4 -5 -6 -6 -6 -7 -7 -7 -8 -8 -8 -9 -9 -9 -9 -10 -10
-5 -5 -6 -6 -6 -6 -5 -5 -5 -5 -4 -3 -3 -3 -3 -3 -3 -3 -3 -4 -4 -4 -4 -5 -4 -5 -5 -6 -6 -6 -7 -7 -7 -7 -8 -8 -9 -9 -9 -9 -10 -10 -10 -10
-6 -6 -6 -5 -5 -6 -6 -5 -5 -6 -5 -4 -3 -3 -4 -4 -4 -5 -6 -5 -4 -5 -5 -5 -5 -5 -6 -6 -6 -7 -7 -8 -8 -8 -8 -9 -9 -9 -9 -10 -10 -10 -11 -11
-6 -6 -6 -5 -6 -6 -6 -5 -5 -6 -6 -6 -5 -5 -5 -5 -5 -5 -5 -5 -5 -5 -5 -6 -6 -6 -6 -7 -7 -7 -8 -8 -9 -9 -9 -9 -9 -10 -10 -10 -11 -11 -11 -11
-5 -5 -5 -5 -5 -5 -5 -5 -5 -5 -6 -5 -5 -5 -5 -5 -5 -5 -5 -5 -5 -6 -6 -6 -6 -7 -7 -7 -7 -8 -8 -8 -9 -9 -9 -9 -10 -10 -10 -11 -11 -12 -12 -12
-5 -5 -5 -4 -5 -5 -5 -5 -5 -5 -5 -5 -5 -5 -6 -6 -6 -6 -6 -6 -6 -6 -6 -6 -7 -7 -7 -7 -8 -8 -8 -8 -9 -9 -9 -10 -10 -11 -11 -12 -12 -12 -13 -13
-5 -5 -5 -5 -5 -5 -5 -5 -5 -6 -6 -6 -6 -6 -6 -6 -6 -6 -6 -6 -7 -7 -7 -7 -7 -7 -8 -8 -8 -8 -8 -9 -9 -9 -9 -10 -11 -11 -12 -12 -12 -13 -13 -14
-5 -5 -5 -5 -6 -6 -6 -6 -6 -6 -6 -6 -6 -6 -6 -6 -6 -7 -7 -6 -7 -7 -8 -8 -7 -8 -8 -8 -8 -9 -9 -10 -10 -10 -10 -11 -11 -12 -12 -12 -13 -13 -14 -15
-5 -5 -5 -5 -6 -6 -6 -6 -6 -6 -7 -7 -7 -7 -7 -7 -7 -7 -7 -7 -7 -7 -8 -8 -8 -8 -9 -9 -9 -10 -10 -10 -10 -11 -11 -11 -12 -12 -13 -13 -13 -14 -15 -16
-6 -6 -6 -6 -6 -6 -6 -7 -7 -7 -7 -7 -7 -7 -7 -7 -7 -8 -8 -7 -8 -8 -8 -9 -9 -9 -9 -10 -10 -10 -10 -11 -11 -11 -12 -12 -12 -13 -14 -14 -15 -15 -16 -17
-6 -6 -6 -6 -6 -7 -7 -7 -7 -7 -7 -8 -8 -7 -8 -8 -8 -8 -8 -8 -8 -9 -9 -9 -10 -10 -10 -10 -11 -11 -11 -11 -12 -12 -12 -12 -13 -14 -14 -15 -16 -16 -17 -17
-6 -7 -7 -7 -7 -7 -8 -8 -7 -7 -7 -7 -8 -8 -8 -8 -8 -8 -9 -9 -9 -9 -10 -10 -10 -10 -11 -11 -11 -11 -12 -12 -12 -12 -13 -13 -14 -14 -15 -16 -16 -17 -18 -18
-7 -7 -7 -7 -7 -7 -8 -8 -8 -8 -8 -8 -8 -9 -9 -9 -9 -9 -9 -9 -10 -10 -10 -11 -11 -11 -11 -11 -12 -12 -12 -12 -13 -13 -13 -14 -14 -15 -16 -16 -17 -18 -18 -19
-7 -7 -8 -8 -8 -8 -9 -9 -9 -9 -9 -9 -9 -9 -9 -10 -9 -10 -10 -10 -10 -11 -11 -11 -11 -11 -11 -12 -12 -12 -12 -13 -13 -14 -14 -15 -15 -16 -16 -17 -18 -18 -18 -19
-8 -8 -8 -8 -8 -8 -9 -9 -9 -9 -9 -9 -10 -10 -10 -10 -10 -10 -10 -10 -11 -11 -11 -11 -11 -11 -12 -12 -12 -13 -13 -13 -14 -14 -15 -15 -16 -17 -17 -18 -18 -19 -19 -19
-8 -8 -8 -8 -9 -9 -9 -9 -10 -10 -10 -10 -10 -10 -10 -10 -10 -11 -11 -11 -11 -11 -11 -11 -12 -12 -12 -13 -13 -13 -14 -14 -15 -15 -16 -16 -17 -17 -18 -18 -19 -19 -19 -19
-9 -9 -9 -9 -9 -9 -10 -10 -10 -10 -10 -10 -10 -10 -10 -11 -11 -11 -11 -11 -11 -11 -12 -12 -12 -12 -13 -13 -13 -14 -14 -15 -15 -16 -17 -17 -17 -18 -18 -19 -19 -19 -20 -20

GFSNGP_700_temp_168.txt.gz
Temp
-4 -3 -3 -3 -2 -2 -2 -2 -2 0 0 0 1 0 1 1 0 -1 -1 0 0 1 1 1 0 -0 -0 -1 -2 -3 -4 -5 -5 -4 -4 -4 -5 -4 -4 -3 -3 -3 -3 -4
-4 -4 -4 -4 -4 -3 -2 -2 -2 -2 -1 1 0 0 0 1 1 0 -1 -1 0 0 1 1 1 1 1 -2 -3 -4 -6 -5 -5 -4 -4 -4 -5 -4 -4 -3 -3 -3 -4 -4
-5 -4 -5 -5 -2 -2 -1 -1 -0 -1 0 1 1 0 0 0 -0 -0 -1 -1 -0 -0 1 1 1 1 0 -1 -3 -4 -5 -5 -4 -5 -4 -4 -4 -4 -4 -4 -4 -4 -4 -5
-6 -6 -6 -4 -3 -2 -2 -1 -0 1 1 1 1 -0 -0 -0 -1 0 -1 -1 0 0 0 1 1 1 -0 -2 -4 -4 -5 -5 -4 -4 -4 -4 -4 -4 -4 -4 -4 -4 -5 -5
-6 -5 -5 -4 -2 -1 -2 -2 -1 -0 1 0 -1 -1 -0 -0 0 0 0 -0 0 0 0 -0 -0 -0 -0 -1 -2 -2 -2 -3 -4 -5 -5 -4 -4 -4 -4 -4 -4 -5 -5 -6
-6 -5 -4 -3 -2 -2 -2 -3 -1 -1 -1 -1 -1 -0 -0 -0 -0 -0 -0 -0 -0 -0 -0 -1 -2 -1 -1 -1 -1 -2 -2 -3 -4 -4 -4 -4 -4 -4 -4 -4 -5 -5 -6 -6
-6 -6 -5 -4 -3 -2 -5 -2 -1 -2 -1 -1 -1 -1 -1 -0 -0 0 -1 -1 -1 -1 -1 -1 -2 -2 -2 -3 -3 -3 -3 -4 -5 -5 -5 -5 -5 -4 -5 -5 -5 -6 -6 -7
-6 -6 -5 -4 -4 -3 -3 -3 -2 -1 -2 -2 -2 -1 -1 -1 -0 -0 -1 -1 -1 -1 -1 -1 -2 -3 -3 -4 -3 -4 -4 -5 -4 -4 -5 -5 -5 -5 -5 -6 -6 -6 -7 -7
-6 -6 -5 -4 -4 -4 -5 -4 -3 -3 -3 -2 -4 -3 -2 -1 -2 -1 -1 -1 -1 -1 -1 -1 -1 -3 -3 -3 -4 -4 -4 -4 -5 -4 -5 -5 -5 -5 -6 -6 -6 -7 -7 -7
-8 -5 -5 -4 -5 -5 -5 -5 -4 -3 -4 -5 -4 -3 -3 -3 -3 -2 -2 -2 -2 -1 -1 -1 -2 -4 -4 -4 -4 -4 -5 -4 -4 -4 -4 -5 -6 -6 -6 -6 -7 -7 -7 -8
-8 -6 -5 -4 -5 -5 -3 -4 -4 -4 -3 -3 -3 -3 -4 -4 -3 -3 -2 -2 -2 -2 -2 -2 -2 -4 -4 -4 -5 -5 -4 -4 -4 -4 -5 -6 -6 -6 -6 -7 -7 -7 -8 -8
-8 -7 -7 -6 -6 -5 -5 -5 -5 -4 -4 -4 -4 -4 -4 -4 -3 -3 -2 -2 -2 -2 -3 -3 -3 -5 -5 -5 -4 -4 -4 -4 -5 -5 -6 -6 -6 -7 -7 -7 -7 -8 -8 -9
-8 -8 -7 -6 -6 -6 -6 -5 -6 -5 -5 -5 -4 -5 -5 -4 -3 -3 -3 -3 -3 -3 -4 -5 -6 -6 -5 -5 -5 -5 -5 -5 -6 -6 -6 -7 -7 -7 -8 -8 -8 -9 -9 -9
-7 -8 -6 -6 -6 -6 -6 -6 -5 -5 -5 -5 -6 -5 -5 -5 -4 -4 -4 -5 -6 -5 -6 -6 -5 -5 -5 -5 -5 -5 -5 -6 -6 -7 -7 -7 -7 -8 -8 -8 -9 -9 -9 -10
-8 -7 -7 -7 -6 -6 -5 -6 -6 -5 -5 -5 -5 -6 -6 -6 -6 -6 -6 -7 -7 -7 -7 -7 -7 -7 -6 -5 -6 -6 -6 -7 -7 -7 -8 -8 -8 -8 -9 -9 -9 -10 -10 -10
-7 -6 -6 -7 -7 -5 -5 -5 -5 -6 -6 -6 -5 -6 -6 -6 -6 -7 -7 -6 -6 -7 -7 -7 -7 -6 -6 -6 -6 -7 -7 -7 -8 -8 -8 -8 -8 -9 -9 -9 -10 -10 -11 -11
-8 -7 -7 -7 -7 -6 -6 -5 -6 -7 -6 -7 -6 -6 -6 -6 -6 -6 -6 -6 -6 -6 -7 -7 -7 -7 -7 -7 -7 -7 -8 -8 -8 -8 -9 -9 -9 -9 -9 -10 -10 -10 -11 -11
-6 -6 -6 -6 -5 -5 -6 -5 -5 -5 -6 -6 -7 -7 -6 -7 -7 -6 -6 -6 -6 -7 -7 -7 -7 -7 -8 -8 -8 -8 -9 -9 -9 -9 -10 -10 -10 -10 -10 -11 -11 -11 -11 -12
-6 -6 -6 -6 -6 -6 -5 -6 -6 -6 -6 -6 -6 -6 -6 -7 -7 -7 -7 -7 -7 -7 -7 -7 -7 -8 -8 -8 -8 -9 -9 -9 -9 -9 -10 -10 -10 -11 -11 -12 -12 -12 -12 -13
-6 -6 -6 -6 -6 -6 -6 -6 -6 -7 -7 -7 -7 -7 -7 -7 -7 -7 -7 -7 -7 -7 -8 -8 -8 -8 -9 -8 -8 -9 -9 -10 -10 -10 -10 -11 -11 -12 -12 -12 -13 -13 -13 -14
-6 -6 -6 -6 -6 -6 -6 -6 -7 -7 -7 -7 -7 -7 -7 -7 -8 -7 -7 -7 -7 -8 -8 -8 -9 -9 -10 -9 -9 -10 -10 -11 -11 -11 -11 -11 -12 -12 -12 -13 -13 -14 -14 -14
-7 -7 -7 -6 -6 -6 -6 -6 -6 -6 -6 -7 -7 -7 -7 -7 -8 -8 -8 -8 -8 -8 -8 -9 -9 -10 -10 -10 -10 -11 -11 -11 -11 -11 -12 -12 -12 -13 -13 -13 -14 -14 -15 -15
-7 -7 -7 -7 -7 -7 -7 -7 -7 -7 -7 -8 -8 -8 -7 -8 -8 -8 -8 -8 -8 -9 -9 -9 -10 -10 -10 -10 -11 -11 -12 -12 -12 -12 -12 -13 -13 -13 -14 -14 -14 -15 -15 -16
-8 -7 -7 -7 -7 -7 -7 -7 -7 -8 -8 -8 -8 -8 -9 -9 -9 -9 -9 -9 -9 -10 -10 -10 -10 -10 -11 -11 -12 -12 -12 -12 -12 -13 -13 -13 -13 -14 -14 -14 -15 -16 -16 -17
-8 -8 -8 -8 -8 -7 -7 -8 -8 -9 -9 -10 -10 -10 -10 -10 -10 -10 -10 -10 -10 -10 -10 -11 -11 -11 -11 -12 -12 -12 -12 -13 -13 -13 -13 -14 -14 -14 -15 -15 -16 -17 -17 -18
-9 -9 -8 -8 -8 -8 -8 -8 -9 -9 -10 -10 -10 -10 -10 -10 -10 -10 -10 -10 -10 -11 -11 -11 -11 -12 -12 -12 -12 -13 -13 -13 -13 -14 -14 -14 -15 -15 -16 -16 -17 -17 -18 -18
-9 -9 -9 -9 -9 -9 -9 -9 -9 -10 -10 -10 -10 -10 -10 -10 -10 -10 -11 -11 -11 -11 -11 -11 -12 -12 -12 -13 -13 -13 -13 -14 -14 -14 -15 -15 -15 -16 -17 -17 -18 -18 -18 -19

GFSNGP_700_temp_174.txt.gz
Temp
-6 -6 -6 -6 -6 -5 -6 -6 -5 -4 -5 -1 -1 -0 -1 -0 0 0 1 2 2 1 0 0 0 1 1 1 -1 -1 -2 -2 -2 -3 -5 -6 -6 -5 -5 -4 -4 -5 -5 -4
-6 -6 -7 -6 -5 -4 -4 -4 -4 -3 -3 -0 -1 -1 1 0 -0 0 0 1 0 0 -0 -0 -0 0 -0 -1 -2 -2 -3 -2 -3 -3 -6 -7 -6 -5 -5 -4 -5 -5 -5 -5
-8 -7 -7 -7 -4 -3 -4 -4 -3 -3 -1 -1 -2 -1 0 1 1 0 0 0 0 -1 -1 -1 -1 -1 -1 -1 -1 -2 -3 -3 -4 -4 -5 -7 -6 -5 -4 -4 -5 -5 -5 -5
-8 -8 -8 -5 -3 -4 -4 -4 -4 -3 -3 -3 -2 -1 -1 0 0 0 0 -0 -0 -1 -1 -1 -1 -1 -1 -1 -2 -3 -3 -3 -3 -4 -5 -6 -6 -5 -5 -4 -4 -5 -6 -5
-9 -7 -6 -5 -4 -3 -4 -4 -4 -4 -3 -3 -3 -2 -1 -2 -0 -1 -1 -1 -1 -1 -1 -1 -1 -1 -1 -2 -2 -3 -4 -4 -4 -4 -4 -6 -5 -5 -4 -5 -5 -6 -6 -6
-9 -8 -8 -5 -4 -4 -4 -4 -5 -5 -5 -5 -4 -2 -2 -2 -1 -2 -2 -1 -1 -1 -1 -0 -0 -1 -1 -1 -2 -2 -4 -4 -5 -5 -5 -6 -5 -5 -5 -5 -6 -6 -6 -6
-9 -8 -7 -6 -6 -6 -6 -6 -4 -5 -5 -5 -5 -5 -4 -4 -4 -4 -3 -2 -1 -1 -1 -1 -1 -1 -1 -2 -1 -2 -3 -5 -5 -6 -5 -6 -5 -5 -5 -5 -6 -6 -6 -6
-8 -8 -7 -8 -8 -7 -7 -6 -6 -6 -5 -5 -5 -5 -5 -4 -4 -3 -2 -2 -1 -1 -1 -1 -2 -2 -1 -2 -2 -2 -3 -4 -5 -5 -5 -6 -6 -6 -6 -6 -6 -6 -7 -7
-10 -9 -8 -9 -9 -8 -7 -7 -6 -6 -6 -6 -6 -6 -5 -4 -4 -3 -2 -2 -2 -2 -2 -1 -2 -2 -2 -3 -3 -3 -3 -4 -4 -5 -5 -6 -6 -5 -6 -6 -6 -6 -7 -7
-10 -9 -8 -8 -9 -7 -7 -7 -6 -6 -6 -6 -6 -5 -4 -4 -4 -4 -3 -3 -3 -2 -2 -2 -2 -2 -2 -3 -4 -4 -3 -4 -4 -4 -5 -6 -6 -6 -7 -6 -6 -7 -7 -7
-9 -9 -9 -8 -7 -7 -7 -6 -6 -6 -6 -6 -5 -4 -3 -3 -4 -4 -3 -3 -3 -3 -2 -2 -2 -2 -2 -3 -3 -4 -3 -4 -5 -5 -5 -6 -6 -7 -7 -7 -7 -7 -8 -8
-9 -9 -10 -7 -7 -7 -7 -6 -6 -6 -6 -6 -6 -4 -4 -4 -5 -5 -4 -3 -4 -3 -3 -2 -2 -3 -3 -3 -3 -4 -4 -5 -6 -6 -6 -6 -7 -6 -7 -7 -7 -7 -8 -8
-9 -10 -10 -8 -7 -7 -7 -6 -6 -6 -6 -6 -5 -4 -5 -5 -5 -5 -5 -4 -3 -3 -3 -3 -3 -4 -4 -3 -5 -5 -6 -6 -6 -7 -7 -7 -6 -7 -7 -7 -7 -8 -8 -9
-10 -10 -9 -8 -7 -7 -7 -6 -7 -6 -6 -6 -6 -6 -6 -5 -4 -5 -5 -4 -4 -3 -3 -3 -4 -5 -5 -5 -6 -7 -7 -7 -7 -6 -7 -7 -7 -7 -8 -8 -8 -8 -9 -9
-9 -9 -9 -8 -8 -8 -8 -7 -6 -6 -7 -6 -6 -6 -6 -6 -5 -5 -5 -6 -5 -4 -4 -4 -5 -6 -6 -7 -7 -7 -7 -7 -7 -7 -7 -7 -8 -8 -8 -8 -9 -9 -9 -10
-9 -9 -9 -8 -8 -8 -7 -7 -7 -6 -6 -6 -7 -7 -6 -7 -7 -6 -7 -6 -7 -7 -7 -6 -7 -7 -7 -8 -8 -7 -7 -7 -7 -8 -8 -8 -8 -9 -9 -9 -9 -10 -10 -10
-9 -9 -8 -8 -7 -8 -7 -7 -6 -6 -7 -7 -7 -7 -7 -7 -7 -7 -7 -7 -7 -6 -7 -7 -7 -8 -8 -8 -8 -8 -8 -8 -8 -8 -8 -9 -9 -9 -9 -10 -10 -10 -11 -11
-9 -8 -8 -8 -8 -7 -7 -6 -6 -7 -7 -7 -7 -7 -7 -7 -7 -7 -7 -7 -7 -7 -7 -7 -7 -8 -8 -8 -7 -8 -8 -8 -8 -9 -9 -9 -9 -10 -10 -10 -10 -11 -11 -11
-8 -8 -8 -7 -7 -7 -6 -6 -6 -6 -6 -6 -6 -7 -7 -7 -7 -7 -7 -7 -7 -7 -7 -7 -7 -7 -8 -8 -8 -8 -8 -8 -8 -9 -9 -9 -10 -10 -10 -11 -11 -11 -12 -12
-8 -8 -8 -7 -7 -7 -6 -6 -6 -6 -6 -6 -6 -6 -7 -7 -7 -7 -7 -8 -7 -7 -7 -7 -7 -7 -8 -8 -8 -8 -8 -8 -9 -9 -9 -10 -10 -10 -11 -11 -12 -12 -12 -12
-8 -7 -7 -7 -7 -7 -7 -6 -6 -6 -6 -6 -6 -6 -7 -7 -7 -7 -7 -8 -8 -8 -8 -8 -8 -8 -8 -8 -9 -9 -9 -10 -10 -10 -10 -10 -11 -11 -12 -12 -12 -13 -13 -13
-8 -8 -7 -7 -7 -7 -7 -7 -7 -7 -6 -6 -6 -7 -7 -7 -7 -7 -8 -8 -8 -8 -8 -8 -8 -8 -9 -9 -9 -10 -10 -10 -11 -11 -11 -11 -12 -12 -12 -13 -13 -13 -14 -14
-8 -8 -8 -8 -8 -8 -7 -7 -7 -7 -7 -7 -7 -7 -8 -8 -7 -8 -8 -9 -9 -8 -9 -9 -9 -9 -10 -10 -10 -10 -11 -11 -11 -12 -12 -12 -12 -12 -13 -13 -13 -14 -14 -15
-8 -8 -8 -8 -8 -8 -8 -8 -8 -8 -8 -8 -9 -9 -9 -9 -9 -9 -9 -9 -9 -9 -9 -10 -10 -10 -11 -11 -11 -11 -12 -12 -12 -12 -12 -12 -13 -13 -13 -14 -14 -14 -15 -15
-8 -9 -9 -9 -9 -9 -9 -9 -9 -9 -9 -9 -9 -10 -10 -10 -10 -10 -10 -10 -10 -10 -10 -11 -11 -11 -11 -12 -12 -12 -12 -12 -12 -13 -13 -13 -13 -14 -14 -14 -15 -15 -16 -16
-9 -9 -9 -9 -9 -9 -9 -9 -9 -9 -9 -9 -10 -10 -10 -10 -10 -10 -10 -11 -11 -11 -11 -11 -11 -12 -12 -12 -12 -13 -13 -13 -13 -13 -13 -14 -14 -14 -15 -15 -16 -16 -17 -17
-10 -10 -10 -10 -10 -10 -10 -10 -10 -10 -10 -10 -10 -11 -11 -11 -11 -11 -11 -11 -11 -11 -11 -12 -12 -12 -12 -13 -13 -13 -13 -13 -14 -14 -14 -15 -15 -15 -16 -16 -17 -17 -18 -18

GFSNGP_700_temp_180.txt.gz
Temp
-7 -7 -6 -7 -6 -5 -8 -6 -7 -5 -5 -3 -2 -2 -2 -3 -3 -3 -0 -2 -2 1 -1 -2 -2 -2 -1 -1 -1 -0 0 -0 -1 -1 -1 -2 -1 -2 -4 -4 -6 -5 -6 -6
-8 -7 -7 -8 -6 -4 -5 -6 -7 -6 -6 -4 -2 -2 -3 -2 -2 -3 -1 -0 -2 -2 -1 0 -1 -1 -1 -1 -1 -1 -1 -1 -1 -1 -2 -2 -2 -3 -3 -5 -5 -6 -7 -7
-9 -8 -9 -9 -5 -5 -6 -6 -6 -6 -5 -5 -4 -3 -2 -2 -2 -2 -1 -0 -2 -1 -0 -1 -1 -2 -1 -1 -1 -2 -2 -2 -2 -2 -2 -3 -3 -3 -3 -5 -7 -7 -7 -5
-10 -10 -13 -7 -7 -7 -7 -6 -6 -7 -7 -6 -6 -5 -4 -4 -4 -3 -2 -2 -2 -1 0 -1 -0 -1 -1 -2 -1 -2 -2 -2 -2 -2 -2 -3 -3 -4 -4 -5 -7 -7 -6 -5
-11 -10 -9 -8 -8 -8 -8 -7 -7 -7 -7 -7 -6 -5 -4 -4 -4 -4 -4 -3 -3 -1 -1 -1 -1 -1 -2 -2 -1 -1 -2 -2 -3 -3 -3 -3 -4 -4 -4 -5 -7 -7 -6 -6
-11 -11 -11 -8 -8 -8 -8 -8 -8 -7 -7 -7 -6 -6 -5 -4 -5 -4 -5 -3 -3 -2 -1 -1 -1 -1 -2 -2 -2 -2 -3 -3 -3 -3 -4 -4 -4 -4 -4 -5 -6 -7 -7 -6
-11 -11 -10 -9 -9 -9 -9 -8 -8 -8 -7 -7 -7 -7 -6 -6 -5 -5 -5 -4 -4 -3 -2 -2 -2 -2 -1 -2 -2 -2 -2 -2 -3 -2 -3 -4 -5 -4 -5 -4 -5 -7 -7 -6
-11 -11 -11 -8 -9 -9 -9 -9 -9 -8 -9 -9 -7 -7 -6 -6 -6 -5 -4 -5 -5 -3 -3 -4 -3 -2 -2 -2 -2 -2 -2 -2 -3 -3 -4 -5 -5 -5 -5 -5 -6 -7 -7 -6
-9 -8 -8 -8 -9 -8 -8 -8 -9 -9 -9 -8 -7 -7 -7 -6 -5 -4 -5 -5 -5 -5 -5 -5 -4 -3 -2 -2 -2 -2 -2 -2 -3 -4 -5 -5 -6 -6 -6 -6 -7 -7 -7 -6
-10 -8 -8 -8 -9 -9 -8 -8 -8 -9 -8 -8 -7 -7 -7 -6 -5 -5 -5 -5 -5 -5 -5 -4 -3 -2 -2 -3 -2 -2 -2 -3 -3 -3 -4 -5 -5 -6 -6 -6 -7 -7 -7 -6
-10 -8 -8 -9 -9 -9 -8 -8 -8 -9 -8 -7 -6 -7 -7 -6 -6 -6 -5 -5 -5 -5 -5 -4 -3 -3 -3 -3 -2 -2 -2 -3 -3 -4 -5 -5 -5 -6 -6 -7 -8 -7 -7 -7
-9 -9 -10 -9 -9 -9 -8 -8 -8 -8 -7 -7 -7 -6 -7 -7 -6 -6 -6 -5 -5 -5 -5 -4 -3 -3 -3 -3 -3 -3 -3 -3 -4 -6 -5 -6 -6 -6 -7 -7 -9 -8 -8 -8
-10 -10 -11 -10 -9 -8 -9 -8 -8 -8 -7 -7 -7 -7 -7 -7 -6 -6 -6 -5 -6 -6 -5 -4 -4 -4 -4 -3 -3 -4 -4 -5 -5 -6 -6 -6 -7 -7 -8 -8 -9 -8 -8 -7
-11 -11 -11 -10 -9 -9 -9 -8 -9 -8 -7 -7 -7 -7 -7 -7 -7 -6 -6 -6 -6 -5 -5 -4 -4 -4 -4 -4 -4 -5 -5 -4 -4 -6 -6 -6 -7 -8 -8 -9 -8 -8 -8 -8
-11 -11 -10 -9 -9 -9 -9 -8 -8 -8 -8 -7 -7 -7 -7 -7 -7 -7 -6 -6 -6 -5 -5 -5 -5 -5 -5 -5 -6 -6 -6 -6 -6 -6 -7 -7 -8 -8 -9 -9 -9 -9 -9 -9
-11 -11 -10 -10 -9 -9 -9 -9 -8 -8 -8 -8 -7 -7 -7 -8 -8 -7 -7 -6 -6 -6 -7 -6 -6 -6 -6 -7 -6 -7 -7 -7 -7 -7 -7 -7 -7 -7 -8 -8 -9 -8 -8 -9
-11 -10 -10 -9 -9 -9 -9 -8 -8 -8 -8 -8 -7 -7 -7 -7 -7 -8 -7 -6 -6 -6 -6 -7 -7 -7 -7 -7 -7 -7 -8 -8 -8 -8 -8 -8 -8 -8 -8 -8 -8 -9 -9 -9
-10 -10 -10 -9 -9 -9 -9 -8 -8 -8 -7 -7 -7 -7 -7 -7 -7 -7 -8 -8 -7 -7 -7 -7 -8 -8 -8 -8 -8 -8 -8 -8 -8 -8 -8 -8 -8 -9 -9 -9 -9 -9 -9 -9
-10 -10 -9 -9 -9 -9 -8 -8 -7 -7 -7 -7 -7 -7 -7 -7 -7 -7 -7 -8 -7 -7 -7 -7 -8 -8 -8 -8 -8 -8 -8 -8 -8 -8 -8 -8 -8 -9 -9 -9 -9 -10 -10 -10
-9 -9 -9 -9 -8 -8 -8 -7 -7 -7 -7 -7 -7 -7 -7 -7 -7 -7 -7 -8 -8 -8 -8 -8 -7 -7 -7 -8 -8 -8 -8 -8 -9 -9 -9 -9 -9 -9 -10 -10 -10 -10 -10 -11
-9 -8 -8 -8 -8 -8 -8 -7 -7 -7 -7 -7 -6 -6 -6 -7 -7 -8 -8 -8 -8 -8 -8 -8 -8 -8 -8 -8 -8 -9 -8 -9 -9 -9 -9 -9 -10 -10 -10 -11 -11 -11 -12 -12
-8 -8 -8 -8 -8 -8 -7 -7 -7 -7 -7 -7 -7 -7 -7 -7 -7 -8 -8 -8 -8 -8 -9 -9 -9 -9 -8 -8 -9 -9 -9 -9 -10 -10 -10 -10 -11 -11 -12 -12 -12 -12 -13 -13
-8 -8 -8 -7 -7 -7 -7 -7 -7 -7 -8 -7 -8 -8 -8 -8 -8 -8 -9 -9 -9 -10 -11 -10 -11 -10 -9 -10 -10 -10 -10 -10 -10 -11 -11 -11 -11 -12 -12 -12 -12 -13 -13 -13
-9 -8 -8 -8 -8 -8 -8 -9 -9 -9 -9 -9 -9 -9 -9 -9 -10 -10 -10 -10 -10 -10 -10 -10 -10 -10 -10 -10 -11 -11 -11 -11 -11 -11 -11 -12 -12 -12 -12 -12 -13 -13 -14 -14
-8 -8 -9 -9 -9 -10 -10 -10 -9 -9 -9 -9 -9 -9 -10 -10 -11 -11 -11 -10 -10 -10 -10 -11 -11 -11 -11 -11 -12 -12 -12 -12 -12 -12 -12 -12 -12 -12 -13 -13 -13 -14 -14 -15
-9 -9 -9 -10 -10 -10 -10 -10 -10 -10 -10 -10 -10 -10 -10 -10 -11 -11 -11 -11 -11 -11 -11 -11 -11 -12 -12 -12 -12 -12 -12 -12 -12 -12 -13 -13 -13 -13 -14 -14 -14 -15 -15 -16
-10 -10 -10 -10 -10 -10 -10 -10 -10 -10 -11 -11 -11 -11 -11 -11 -11 -12 -12 -12 -12 -12 -12 -12 -12 -12 -12 -12 -12 -12 -13 -13 -13 -13 -13 -14 -14 -14 -15 -15 -15 -16 -16 -17

GFSNGP_700_temp_183.txt.gz
Temp
-6 -7 -6 -7 -7 -6 -7 -8 -8 -5 -7 -4 -4 -5 -4 -4 -4 -3 -3 -3 -1 -2 -2 -2 -2 -3 -2 -2 -1 -1 -0 -0 -0 0 0 0 -1 -2 -1 -1 -1 -3 -2 -3
-7 -7 -8 -8 -7 -6 -6 -6 -7 -8 -7 -5 -6 -6 -5 -5 -5 -4 -3 -4 -3 -2 -2 -2 -1 -2 -2 -2 -2 -2 -1 -1 -1 -1 -1 -2 -2 -1 -2 -2 -2 -4 -4 -4
-9 -9 -9 -9 -6 -6 -7 -7 -8 -8 -7 -7 -6 -6 -5 -5 -5 -5 -5 -5 -5 -4 -3 -2 -1 -1 -2 -2 -2 -2 -2 -1 -2 -1 -2 -2 -2 -2 -3 -2 -2 -3 -5 -5
-10 -10 -10 -7 -7 -8 -8 -7 -8 -8 -8 -8 -7 -7 -7 -7 -6 -5 -5 -5 -6 -5 -3 -2 -1 -1 -1 -2 -2 -2 -2 -2 -2 -2 -2 -2 -2 -3 -3 -3 -3 -3 -5 -5
-10 -10 -9 -8 -7 -8 -9 -8 -8 -8 -9 -9 -8 -7 -7 -7 -6 -5 -5 -5 -6 -5 -3 -2 -2 -1 -1 -2 -2 -2 -2 -2 -2 -2 -2 -3 -3 -3 -3 -3 -4 -4 -6 -7
-11 -11 -9 -8 -7 -8 -9 -9 -8 -9 -9 -9 -9 -8 -6 -6 -6 -5 -5 -6 -6 -5 -4 -4 -3 -1 -1 -2 -2 -2 -3 -3 -2 -3 -3 -3 -3 -3 -4 -4 -4 -5 -5 -7
-12 -11 -10 -8 -8 -9 -9 -8 -8 -8 -8 -8 -9 -9 -9 -8 -7 -7 -6 -5 -5 -5 -5 -4 -3 -2 -2 -1 -1 -2 -3 -3 -3 -3 -3 -3 -4 -4 -4 -4 -5 -5 -6 -7
-12 -12 -11 -7 -8 -9 -8 -8 -8 -8 -8 -8 -8 -8 -9 -7 -7 -6 -6 -5 -6 -5 -5 -5 -4 -3 -3 -3 -2 -2 -3 -3 -4 -4 -3 -4 -5 -4 -5 -5 -6 -6 -6 -7
-10 -8 -8 -8 -8 -8 -9 -9 -8 -8 -8 -8 -8 -8 -8 -7 -7 -6 -6 -6 -6 -5 -5 -6 -4 -3 -3 -3 -2 -2 -3 -3 -3 -3 -3 -4 -5 -5 -5 -6 -6 -6 -6 -7
-10 -8 -8 -8 -9 -8 -9 -9 -8 -8 -8 -9 -9 -8 -8 -8 -7 -8 -6 -7 -6 -6 -6 -6 -6 -5 -4 -4 -3 -3 -3 -3 -3 -3 -4 -5 -5 -6 -6 -6 -7 -7 -7 -7
-10 -8 -8 -8 -8 -9 -9 -9 -9 -8 -9 -10 -8 -7 -8 -8 -8 -7 -7 -6 -6 -6 -6 -6 -5 -5 -5 -4 -4 -4 -3 -3 -3 -4 -4 -5 -5 -6 -6 -6 -7 -7 -7 -7
-9 -8 -10 -10 -10 -10 -10 -9 -9 -9 -8 -9 -8 -8 -8 -8 -8 -8 -7 -7 -6 -6 -5 -5 -6 -5 -6 -5 -4 -4 -4 -4 -5 -4 -5 -5 -6 -6 -6 -7 -8 -8 -8 -8
-10 -11 -11 -11 -11 -11 -11 -10 -9 -9 -9 -8 -7 -8 -8 -8 -8 -8 -7 -7 -6 -6 -6 -5 -5 -5 -5 -4 -4 -4 -4 -4 -5 -5 -6 -6 -6 -6 -6 -7 -8 -8 -9 -9
-11 -11 -10 -10 -11 -11 -10 -10 -9 -9 -8 -8 -8 -8 -8 -8 -8 -8 -7 -7 -6 -6 -5 -5 -5 -5 -5 -5 -5 -5 -5 -5 -4 -5 -6 -6 -6 -6 -6 -7 -8 -8 -9 -9
-11 -11 -11 -10 -10 -10 -10 -9 -9 -8 -8 -8 -8 -8 -8 -8 -8 -8 -7 -7 -6 -6 -6 -6 -5 -5 -5 -5 -6 -6 -7 -6 -5 -6 -7 -7 -6 -6 -7 -8 -9 -10 -9 -9
-9 -11 -10 -10 -10 -10 -10 -9 -8 -8 -9 -8 -8 -8 -8 -8 -8 -8 -7 -7 -7 -7 -6 -7 -6 -7 -7 -7 -7 -7 -7 -7 -6 -7 -7 -7 -7 -8 -8 -9 -10 -10 -10 -10
-10 -11 -11 -10 -10 -10 -9 -9 -9 -9 -8 -8 -8 -8 -8 -8 -8 -8 -7 -7 -7 -7 -7 -7 -7 -7 -7 -7 -7 -8 -8 -8 -8 -7 -8 -7 -8 -8 -9 -9 -9 -9 -9 -9
-11 -11 -10 -10 -10 -9 -9 -9 -9 -8 -8 -8 -8 -7 -7 -7 -7 -7 -7 -7 -7 -8 -8 -8 -8 -8 -8 -8 -8 -8 -8 -8 -8 -8 -8 -9 -9 -9 -8 -9 -9 -9 -9 -9
-10 -10 -10 -10 -9 -9 -9 -8 -8 -8 -8 -7 -7 -7 -7 -7 -7 -8 -8 -7 -7 -7 -7 -7 -8 -8 -8 -8 -8 -8 -8 -9 -9 -9 -9 -9 -9 -9 -9 -9 -9 -9 -9 -10
-10 -10 -10 -9 -9 -9 -9 -8 -8 -8 -7 -7 -7 -7 -7 -7 -7 -7 -8 -8 -8 -8 -8 -8 -8 -8 -8 -8 -8 -8 -8 -9 -9 -9 -9 -9 -9 -9 -9 -9 -10 -10 -10 -11
-9 -10 -10 -9 -9 -9 -8 -8 -8 -8 -8 -7 -7 -7 -7 -7 -7 -7 -7 -7 -8 -8 -9 -8 -8 -8 -8 -8 -8 -8 -9 -9 -9 -9 -9 -9 -10 -10 -10 -10 -10 -11 -11 -11
-9 -9 -8 -8 -8 -8 -8 -8 -8 -8 -7 -7 -7 -7 -7 -7 -7 -8 -8 -8 -8 -8 -9 -10 -9 -9 -9 -9 -9 -9 -9 -9 -9 -9 -10 -10 -10 -10 -11 -11 -11 -11 -12 -12
-8 -8 -8 -8 -8 -8 -8 -8 -8 -8 -8 -8 -8 -8 -8 -8 -8 -9 -9 -9 -9 -9 -10 -11 -10 -11 -10 -10 -10 -10 -10 -10 -10 -10 -11 -11 -11 -11 -12 -12 -12 -12 -13 -13
-9 -9 -9 -9 -9 -9 -9 -9 -9 -9 -9 -9 -9 -9 -9 -9 -9 -10 -10 -10 -10 -10 -10 -10 -11 -11 -11 -11 -11 -11 -11 -11 -11 -12 -12 -12 -12 -12 -12 -13 -13 -13 -13 -14
-9 -9 -9 -9 -9 -10 -10 -10 -10 -10 -10 -10 -10 -10 -10 -10 -11 -11 -11 -11 -11 -11 -11 -11 -11 -12 -12 -12 -12 -12 -12 -12 -12 -12 -12 -13 -13 -13 -13 -13 -13 -14 -14 -14
-9 -9 -10 -10 -10 -10 -10 -10 -10 -10 -10 -11 -10 -10 -10 -11 -11 -11 -12 -11 -11 -12 -12 -12 -12 -12 -12 -12 -12 -12 -12 -12 -12 -13 -13 -13 -13 -13 -14 -14 -14 -15 -15 -15
-10 -10 -10 -10 -10 -10 -10 -10 -10 -10 -10 -11 -11 -11 -11 -11 -11 -12 -12 -12 -12 -12 -12 -12 -12 -12 -13 -13 -13 -13 -13 -13 -13 -13 -14 -14 -14 -14 -15 -15 -15 -16 -16 -16

GFSNGP_700_temp_186.txt.gz
Temp
-6 -6 -6 -5 -5 -5 -6 -6 -6 -6 -5 -5 -5 -5 -5 -6 -6 -6 -5 -6 -6 -6 -5 -4 -4 -3 -2 -2 -3 -3 -2 -3 -2 -2 -2 -1 -1 -1 -1 -0 -1 -1 -1 -1
-8 -7 -6 -6 -6 -6 -6 -6 -6 -5 -5 -5 -5 -6 -7 -7 -7 -6 -6 -7 -7 -6 -5 -5 -4 -3 -3 -2 -2 -2 -3 -3 -3 -3 -2 -1 -1 -1 -1 -1 -2 -2 -3 -2
-7 -6 -7 -7 -6 -6 -5 -5 -6 -6 -5 -6 -7 -7 -8 -8 -8 -8 -8 -6 -6 -5 -4 -4 -4 -3 -2 -2 -3 -2 -2 -3 -2 -3 -4 -3 -2 -2 -2 -2 -2 -3 -4 -4
-7 -8 -7 -5 -6 -6 -6 -6 -7 -7 -7 -8 -8 -8 -8 -9 -8 -9 -9 -7 -6 -6 -4 -4 -3 -3 -3 -2 -2 -2 -2 -2 -3 -3 -3 -3 -3 -4 -4 -4 -3 -3 -3 -4
-8 -7 -6 -6 -7 -7 -7 -7 -7 -8 -8 -8 -8 -9 -8 -8 -9 -8 -8 -7 -7 -7 -6 -5 -4 -3 -3 -3 -3 -2 -2 -2 -2 -2 -2 -2 -3 -3 -4 -4 -3 -4 -4 -4
-9 -8 -7 -5 -7 -7 -8 -8 -7 -8 -8 -8 -9 -9 -8 -8 -7 -7 -7 -7 -7 -6 -6 -6 -5 -4 -3 -3 -3 -2 -2 -3 -2 -2 -2 -3 -3 -3 -4 -4 -4 -4 -4 -4
-9 -8 -7 -7 -7 -9 -9 -7 -8 -8 -9 -9 -9 -9 -9 -7 -7 -8 -7 -8 -6 -6 -5 -6 -5 -4 -3 -3 -3 -3 -2 -3 -3 -2 -3 -3 -3 -4 -4 -4 -4 -5 -5 -6
-10 -9 -8 -8 -9 -9 -7 -8 -8 -9 -9 -9 -8 -8 -7 -7 -7 -7 -7 -7 -7 -6 -6 -5 -5 -4 -3 -3 -3 -3 -2 -3 -3 -3 -3 -3 -3 -4 -4 -5 -5 -5 -6 -6
-9 -8 -9 -8 -8 -8 -9 -9 -9 -9 -10 -9 -8 -7 -7 -7 -7 -8 -7 -7 -7 -7 -6 -5 -6 -5 -5 -4 -3 -3 -2 -3 -3 -4 -4 -3 -4 -4 -4 -5 -5 -5 -5 -6
-10 -7 -9 -9 -9 -9 -9 -9 -9 -10 -10 -10 -8 -8 -8 -7 -7 -8 -7 -7 -6 -6 -6 -6 -6 -6 -5 -5 -4 -3 -3 -3 -3 -3 -3 -4 -4 -5 -5 -6 -6 -6 -6 -6
-10 -8 -9 -9 -9 -9 -9 -10 -10 -10 -10 -10 -8 -8 -8 -7 -7 -8 -8 -7 -7 -6 -6 -6 -6 -6 -6 -6 -5 -4 -4 -3 -4 -4 -4 -5 -5 -5 -6 -6 -6 -7 -7 -7
-9 -9 -9 -9 -10 -10 -11 -11 -11 -11 -10 -9 -8 -8 -8 -7 -8 -8 -8 -8 -7 -6 -6 -6 -6 -6 -6 -6 -6 -5 -4 -4 -4 -4 -4 -5 -4 -5 -5 -6 -7 -7 -7 -7
-10 -10 -11 -11 -11 -11 -11 -11 -11 -11 -11 -8 -8 -8 -8 -8 -8 -8 -9 -8 -7 -6 -6 -6 -6 -6 -5 -5 -5 -5 -5 -5 -5 -4 -4 -5 -5 -5 -5 -5 -6 -6 -7 -8
-11 -11 -10 -11 -11 -11 -10 -10 -10 -10 -11 -9 -8 -8 -8 -8 -8 -8 -8 -8 -7 -7 -6 -6 -6 -6 -6 -6 -6 -5 -5 -5 -5 -5 -6 -6 -6 -6 -5 -6 -6 -7 -7 -8
-10 -10 -9 -9 -10 -10 -11 -11 -11 -11 -10 -8 -8 -8 -8 -8 -8 -8 -8 -7 -7 -7 -6 -6 -7 -7 -7 -7 -7 -7 -6 -6 -6 -7 -7 -6 -6 -6 -6 -6 -7 -8 -9 -9
-11 -10 -10 -10 -11 -11 -11 -10 -10 -10 -9 -8 -8 -9 -8 -8 -8 -8 -8 -8 -7 -7 -7 -7 -7 -7 -7 -7 -7 -7 -7 -7 -7 -7 -7 -7 -7 -7 -7 -7 -8 -9 -9 -10
-10 -11 -10 -11 -11 -10 -10 -10 -9 -9 -9 -9 -8 -8 -8 -8 -8 -8 -8 -8 -7 -7 -7 -7 -7 -7 -7 -7 -7 -8 -8 -7 -7 -7 -7 -7 -7 -7 -8 -9 -9 -10 -10 -10
-10 -10 -10 -10 -10 -10 -9 -9 -9 -9 -9 -8 -8 -8 -8 -8 -8 -7 -7 -7 -7 -7 -7 -7 -8 -7 -7 -8 -8 -8 -8 -8 -8 -8 -8 -8 -8 -8 -8 -9 -9 -9 -10 -10
-10 -10 -10 -10 -9 -9 -9 -9 -8 -8 -8 -8 -8 -8 -7 -7 -7 -7 -7 -7 -7 -7 -8 -8 -7 -8 -8 -8 -8 -8 -8 -8 -9 -9 -9 -9 -9 -9 -9 -9 -9 -9 -9 -10
-10 -10 -10 -10 -9 -9 -9 -8 -8 -8 -8 -8 -8 -7 -7 -7 -7 -7 -7 -7 -7 -8 -8 -8 -8 -8 -8 -8 -8 -8 -9 -9 -9 -9 -9 -9 -9 -9 -9 -9 -9 -10 -10 -10
-9 -9 -9 -9 -9 -9 -9 -8 -8 -8 -8 -8 -8 -7 -7 -7 -7 -8 -8 -8 -7 -8 -8 -8 -8 -8 -8 -8 -8 -9 -9 -9 -9 -9 -9 -9 -9 -10 -10 -10 -10 -11 -11 -11
-9 -9 -9 -9 -9 -9 -8 -8 -8 -8 -8 -8 -8 -7 -7 -7 -7 -7 -8 -8 -8 -8 -8 -9 -9 -9 -9 -9 -9 -9 -9 -9 -9 -9 -10 -10 -10 -10 -11 -11 -11 -12 -12 -12
-9 -9 -9 -9 -9 -8 -8 -8 -8 -8 -8 -8 -8 -8 -8 -8 -8 -8 -9 -9 -9 -9 -10 -11 -11 -11 -11 -10 -10 -10 -10 -10 -10 -10 -10 -11 -11 -11 -11 -11 -12 -12 -12 -13
-9 -8 -8 -8 -8 -8 -8 -9 -9 -9 -9 -9 -9 -9 -9 -9 -9 -9 -10 -10 -10 -10 -10 -11 -11 -11 -11 -11 -11 -11 -11 -11 -11 -11 -12 -12 -12 -12 -12 -12 -12 -13 -13 -13
-9 -9 -9 -9 -9 -9 -9 -9 -9 -9 -9 -9 -10 -10 -10 -10 -10 -10 -10 -11 -11 -11 -11 -11 -11 -11 -12 -12 -12 -12 -12 -12 -12 -12 -12 -12 -12 -13 -13 -13 -13 -14 -14 -14
-9 -9 -9 -9 -10 -10 -10 -10 -9 -9 -9 -10 -10 -10 -10 -10 -10 -11 -11 -11 -11 -11 -11 -12 -12 -12 -12 -12 -12 -12 -12 -12 -12 -13 -13 -13 -13 -13 -14 -14 -14 -15 -15 -15
-10 -10 -10 -10 -10 -10 -10 -10 -9 -9 -10 -10 -10 -11 -11 -11 -11 -11 -11 -12 -12 -12 -12 -12 -12 -12 -12 -13 -13 -13 -13 -13 -13 -13 -13 -14 -14 -14 -15 -15 -15 -15 -16 -16